Content
SEND FEEDBACK

Daily
Averages
Monthly
Summary
United States of America

ALPINE MEADOWS, CALIFORNIA


Home > North America > United States > California
Elevation: 6230 feet     Latitude: 39 12N     Longitude: 120 14W

WEATHER
 
SELECT A DAY
Number of Records: 282,275;   Date Range: 1/1/95 - 7/26/14
 
SHARE

PRINT THIS DATA

[ ← Previous Day ]
WEATHER ALMANAC - APRIL 18, 2014
[ Next Day → ]
[ °C ]   °F
Weather ElementAverageHighLow
Temperature43.5 °F62.6 °F (2:55 pm)32 °F (5:35 am)
Dewpoint35.3 °F41 °F (7:15 pm)32 °F (12:55 am)
Humidity75.3 %100 % (5:35 am)36 % (1:55 pm)
Barometer30.00 in30.06 in (10:55 pm)29.96 in (3:55 pm)
Wind Speed2.4 mph9.2 mph (8:15 pm)
Weather ElementAverage
Visibility10 mi
Wind DirectionESE (101.3 °)

Weather ElementTotal
Precipitation---
Heating Degree Days17.7 (Base 65)
Averaged from 47 records on April 18, 2014
WEATHER CONDITIONS BREAKOUT
WIND DIRECTION BREAKOUT
WEATHER BY HOUR - APRIL 18, 2014
[ °C ]   °F
Local TimeTemperatureDewpointHumidityBarometerVisibilityWind DirectionWind SpeedGust SpeedPrecipitationEventsConditions
12:35 AM42.8 °F33.8 °F70 %29.97 in10.0 miSouth (170°)4.6 mphClear
12:55 AM41.0 °F32.0 °F70 %29.97 in10.0 miSSE (160°)4.6 mphClear
1:15 AM39.2 °F32.0 °F75 %29.97 in10.0 miCalmClear
1:35 AM41.0 °F32.0 °F70 %29.97 in10.0 miCalmClear
1:55 AM42.8 °F33.8 °F70 %29.97 in10.0 miCalmClear
2:15 AM35.6 °F32.0 °F87 %29.97 in10.0 miSE (140°)3.5 mphClear
2:35 AM35.6 °F32.0 °F87 %29.97 in10.0 miCalmClear
2:55 AM37.4 °F32.0 °F81 %29.97 in10.0 miCalmClear
3:15 AM35.6 °F32.0 °F87 %29.98 in10.0 miCalmClear
3:35 AM37.4 °F32.0 °F81 %29.98 in10.0 miCalmClear
3:55 AM33.8 °F32.0 °F93 %29.98 in10.0 miSouth (170°)4.6 mphClear
4:15 AM35.6 °F32.0 °F87 %29.97 in10.0 miCalmScattered Clouds
4:35 AM37.4 °F33.8 °F87 %29.97 in10.0 miCalmScattered Clouds
4:55 AM35.6 °F32.0 °F87 %29.98 in10.0 miCalmMostly Cloudy
5:15 AM35.6 °F32.0 °F87 %29.98 in10.0 miCalmMostly Cloudy
5:35 AM32.0 °F32.0 °F100 %29.98 in10.0 miCalmScattered Clouds
5:55 AM35.6 °F32.0 °F87 %30.00 in10.0 miCalmClear
6:15 AM33.8 °F32.0 °F93 %30.00 in10.0 miCalmClear
6:35 AM33.8 °F33.8 °F100 %30.01 in10.0 miCalmClear
6:45 AM33.8 °F32.0 °F93 %30.01 in10.0 miCalmClear
7:50 AM39.2 °F35.6 °F87 %30.03 in10.0 miCalmClear
8:45 AM44.6 °F35.6 °F71 %30.04 in10.0 miCalmPartly Cloudy
9:50 AM48.2 °F37.4 °F66 %30.04 in10.0 miCalmPartly Cloudy
10:55 AM55.4 °F37.4 °F51 %30.03 in10.0 miNW (310°)4.6 mphScattered Clouds
11:45 AM57.2 °F37.4 °F48 %30.02 in10.0 miCalmScattered Clouds
1:55 PM60.8 °F33.8 °F36 %29.99 in10.0 miWNW (290°)3.5 mphMostly Cloudy
2:55 PM62.6 °F35.6 °F37 %29.97 in10.0 miSSW (200°)5.8 mphMostly Cloudy
3:55 PM62.6 °F37.4 °F39 %29.96 in10.0 miWSW (240°)6.9 mphMostly Cloudy
5:45 PM57.2 °F39.2 °F51 %29.98 in10.0 miWSW (240°)5.8 mphMostly Cloudy
6:15 PM55.4 °F37.4 °F51 %29.99 in10.0 miNorth (360°)3.5 mphOvercast
6:35 PM55.4 °F37.4 °F51 %29.99 in10.0 miCalmOvercast
6:55 PM55.4 °F39.2 °F54 %30.00 in10.0 miCalmOvercast
7:15 PM53.6 °F41.0 °F62 %30.00 in10.0 miWNW (290°)8.1 mphMostly Cloudy
7:35 PM51.8 °F41.0 °F67 %30.01 in10.0 miWest (280°)8.1 mphScattered Clouds
7:55 PM51.8 °F41.0 °F67 %30.02 in10.0 miWest (270°)6.9 mphMostly Cloudy
8:15 PM51.8 °F41.0 °F67 %30.02 in10.0 miWest (280°)9.2 mphScattered Clouds
8:35 PM46.4 °F37.4 °F71 %30.03 in10.0 miSSW (200°)4.6 mphClear
8:55 PM44.6 °F39.2 °F81 %30.04 in10.0 miSSE (150°)4.6 mphClear
9:15 PM44.6 °F37.4 °F76 %30.04 in10.0 miSE (130°)4.6 mphClear
9:35 PM42.8 °F37.4 °F81 %30.04 in10.0 miSSE (150°)4.6 mphClear
9:55 PM41.0 °F37.4 °F87 %30.05 in10.0 miSouth (190°)3.5 mphClear
10:15 PM37.4 °F35.6 °F93 %30.05 in10.0 miCalmClear
10:35 PM39.2 °F35.6 °F87 %30.05 in10.0 miSE (140°)4.6 mphClear
10:55 PM39.2 °F35.6 °F87 %30.06 in10.0 miSSW (210°)3.5 mphClear
11:15 PM37.4 °F35.6 °F93 %30.06 in10.0 miSouth (190°)4.6 mphClear
11:35 PM37.4 °F35.6 °F93 %30.06 in10.0 miCalmClear
11:55 PM37.4 °F35.6 °F93 %30.06 in10.0 miCalmClear
Hourly data recorded from KTRK, located miles away from Alpine Meadows, California







STORIES FROM OUR PARTNERS